MST,Max TemperatureF,Mean TemperatureF,Min TemperatureF,Max Dew PointF,MeanDew PointF,Min DewpointF,Max Humidity, Mean Humidity, Min Humidity, Max Sea Level PressureIn, Mean Sea Level PressureIn, Min Sea Level PressureIn, Max VisibilityMiles, Mean VisibilityMiles, Min VisibilityMiles, Max Wind SpeedMPH, Mean Wind SpeedMPH, Max Gust SpeedMPH,PrecipitationIn, CloudCover, Events, WindDirDegrees
2013-1-1,30,13,-4,22,8,-7,95,77,58,30.31,30.19,30.03,10,8,1,20,10,24,T,2,Snow,272
2013-1-2,31,25,19,22,18,14,84,69,53,30.38,30.21,30.06,10,7,2,33,17,40,T,7,Snow,326
2013-1-3,33,16,-2,15,8,-4,86,63,39,30.43,30.34,30.24,10,10,10,14,8,17,T,2,,274
2013-1-4,43,23,2,23,9,-1,84,63,41,30.34,30.22,30.12,10,10,10,12,6,14,0.00,0,,263
2013-1-5,39,22,5,22,13,1,88,68,48,30.37,30.27,30.04,10,10,10,30,14,38,0.00,0,,288
2013-1-6,44,22,0,25,12,-3,88,61,34,30.34,30.16,29.94,10,10,10,21,8,24,0.00,0,,200
2013-1-7,43,28,13,23,17,11,88,62,36,30.12,29.98,29.81,10,10,10,16,6,18,0.00,0,,197
2013-1-8,48,32,15,23,19,14,84,61,37,30.28,29.99,29.77,10,10,10,30,10,36,0.00,0,,273
2013-1-9,56,37,17,28,22,13,84,55,26,30.32,30.18,29.99,10,10,10,24,13,30,0.00,0,,196
2013-1-10,51,39,27,38,31,19,100,76,52,29.99,29.69,29.44,10,7,0,30,13,36,0.00,1,Fog,161
2013-1-11,32,18,4,31,18,-1,100,87,73,29.96,29.51,29.31,10,4,0,28,16,36,T,7,Fog-Snow,350
2013-1-12,12,0,-12,3,-3,-17,86,76,66,30.30,30.10,29.86,10,10,5,22,11,30,0.00,3,,309
2013-1-13,15,2,-12,7,-3,-15,95,78,61,30.41,30.25,30.04,10,9,2,13,7,15,T,4,Snow,285
2013-1-14,15,-1,-17,4,-10,-22,87,70,53,30.51,30.39,30.10,10,10,10,14,7,16,0.00,0,,237
2013-1-15,31,8,-15,24,7,-20,85,70,55,30.34,30.21,30.06,10,10,8,25,14,30,T,5,Snow,268
2013-1-16,47,34,20,25,20,16,84,61,37,30.38,30.20,30.08,10,10,2,28,15,36,0.00,1,,290
2013-1-17,50,32,14,18,16,11,80,53,26,30.52,30.37,30.14,10,10,10,17,9,20,0.00,0,,256
2013-1-18,56,36,15,17,13,9,73,44,15,30.16,30.06,29.95,10,10,10,24,12,35,0.00,0,,270
2013-1-19,53,36,19,23,15,11,91,55,18,30.32,30.18,29.96,10,10,10,24,11,31,0.00,0,,303
2013-1-20,32,18,4,22,15,0,91,77,63,30.45,30.33,30.10,10,10,10,26,9,32,0.00,2,,322
2013-1-21,37,18,-1,20,10,-6,88,66,44,30.39,30.25,30.11,10,10,10,13,4,15,0.00,3,,184
2013-1-22,55,31,6,18,8,4,92,53,13,30.24,30.14,30.08,10,10,10,21,8,25,0.00,0,,280
2013-1-23,37,25,12,19,14,7,84,64,44,30.34,30.24,30.11,10,10,10,16,8,21,0.00,0,,54
2013-1-24,62,39,16,28,19,13,91,57,22,30.24,30.07,29.88,10,10,2,35,14,44,0.00,3,,224
2013-1-25,59,35,11,28,19,8,92,59,25,30.21,30.14,30.05,10,10,10,21,6,25,0.00,0,,270
2013-1-26,60,39,18,33,25,17,92,61,29,30.05,29.92,29.72,10,10,10,25,8,31,0.00,1,,238
2013-1-27,55,41,27,43,35,26,100,77,54,29.76,29.70,29.63,10,10,7,13,7,15,T,5,Rain,202
2013-1-28,32,27,22,30,27,22,100,96,92,29.81,29.70,29.64,10,3,0,21,11,26,T,6,Fog-Snow,7
2013-1-29,31,21,11,23,18,6,96,80,63,30.08,29.85,29.70,10,6,0,30,11,37,T,6,Fog-Snow,321
2013-1-30,33,15,-3,21,10,-7,92,73,54,30.05,29.95,29.85,10,10,10,25,13,32,0.00,3,,298
2013-1-31,27,19,11,20,11,5,88,75,62,30.31,30.14,29.88,10,8,1,21,8,26,T,8,Snow,332